www.pogodaiklimat.ru

Погода и климат >> Архив погоды >> Иран >> Остров Сирри


ПОГОДА на Острове Сирри

  • Прогноз погоды на Острове Сирри
  • Монитор погоды на Острове Сирри

АРХИВ ПОГОДЫ на Острове Сирри

Время (UTC), дата Ветер
(напр.,м/с)
 
Видим.   Явления Облачность Т
(С)
Тd
(С)
f
(%)
Тe
(С)
Тes
(С)
Комфортность P
(гПа)
Po
(гПа)
Тmin
(С)
Tmax
(С)
R
(мм)
R24
(мм)
S
(см)
03 13.08 СВ 5 3500 м дымка 4/0
[Ac trans]
+33.6 +30.7 85 +63 +64 опасность
перегрева
997.7 997.3 +33.0
06 13.08 В 6 5000 м дымка ясно +34.4 +30.1 78 +61 +67 опасность
перегрева
999.3 998.9
09 13.08 СВ 6 5000 м мгла 3/0
[Ci fib]
+35.2 +29.6 73 +61 +69 опасность
перегрева
999.0 998.6
12 13.08 СВ 4 5000 м мгла ясно +35.8 +30.1 73 +63 +69 опасность
перегрева
997.5 997.1
15 13.08 СВ 3 5000 м мгла ясно +35.2 +30.2 75 +62 +62 опасность
перегрева
997.5 997.1 +36.0
03 14.08 СВ 5 4000 м дымка 3/0
[Ci fib]
+33.6 +30.2 82 +61 +62 опасность
перегрева
999.4 999.0 +33.6
06 14.08 В 6 4000 м мгла ясно +34.4 +30.2 79 +62 +68 опасность
перегрева
1000.7 1000.2
09 14.08 В 6 5000 м мгла ясно +35.0 +29.4 73 +60 +68 опасность
перегрева
999.9 999.4
12 14.08 В 3 5000 м мгла ясно +35.8 +30.1 73 +63 +70 опасность
перегрева
998.0 997.5
15 14.08 СВ 2 3000 м мгла ясно +35.2 +29.1 71 +59 +59 опасность
перегрева
998.5 998.0 +36.2
03 15.08 СВ 5 4000 м мгла ясно +34.0 +28.9 75 +57 +58 опасность
перегрева
1000.5 1000.0 +33.8
06 15.08 В 7 5000 м дымка ясно +34.4 +30.2 79 +62 +66 опасность
перегрева
1001.5 1001.0
09 15.08 В 6 5000 м мгла ясно +35.0 +30.5 78 +64 +72 опасность
перегрева
1000.8 1000.3
12 15.08 СВ 2 5000 м мгла ясно +36.2 +30.1 71 +63 +72 опасность
перегрева
998.8 998.4
15 15.08 СЗ 3 3000 м мгла ясно +35.8 +28.0 64 +56 +56 опасность
перегрева
998.4 998.0 +37.2
03 16.08 СВ 3 3000 м дымка ясно +33.8 +30.1 81 +61 +62 опасность
перегрева
999.9 999.4 +32.8
06 16.08 В 2 4000 м мгла ясно +36.2 +30.1 71 +63 +78 опасность
перегрева
1000.9 1000.4
09 16.08 СВ 5 4000 м мгла ясно +35.4 +31.0 78 +66 +77 опасность
перегрева
1000.1 999.6
12 16.08 СВ 3 4000 м мгла 4/0
[Ac As]
+35.4 +30.0 74 +62 +67 опасность
перегрева
997.9 997.4
15 16.08 СЗ 6 4000 м мгла 5/0
[Ac As]
+35.4 +28.2 66 +56 +56 опасность
перегрева
997.9 997.4 +36.8
03 17.08 СЗ 2 3000 м дымка ясно +33.2 +29.5 81 +58 +60 опасность
перегрева
997.7 997.2 +32.6
06 17.08 ЮЗ 2 3500 м мгла 4/4 900 м
[St]
+35.6 +30.0 73 +63 +71 опасность
перегрева
999.6 999.1
09 17.08 В 2 2800 м пыль 3/3 900 м
[St]
+37.0 +29.6 66 +62 +77 опасность
перегрева
998.7 998.2
12 17.08 В 2 3000 м мгла 3/3 1200 м
[Sc diur, vesp]
+36.4 +30.0 70 +63 +69 опасность
перегрева
997.1 996.6
15 17.08 С 3 3000 м мгла ясно +35.4 +29.0 70 +59 +59 опасность
перегрева
997.1 996.6 +37.4
03 18.08 СВ 3 3200 м дымка ясно +33.2 +30.6 86 +62 +63 опасность
перегрева
999.3 998.8 +32.2
06 18.08 В 7 5000 м дымка ясно +34.8 +30.2 77 +62 +66 опасность
перегрева
1001.3 1000.8
09 18.08 СВ 4 6000 м мгла ясно +36.6 +27.1 58 +54 +68 опасность
перегрева
1000.9 1000.4
12 18.08 СВ 4 5000 м мгла ясно +36.8 +30.1 69 +64 +69 опасность
перегрева
999.5 999.0
15 18.08 В 4 4000 м мгла ясно +35.4 +27.3 63 +54 +54 опасность
перегрева
1000.0 999.5 +37.6
03 19.08 СВ 8 5000 м дымка 4/0
[Ci fib]
+32.8 +28.8 80 +56 +56 опасность
перегрева
1002.5 1002.0 +32.6
06 19.08 В 9 6000 м мгла ясно +33.8 1004.2 1003.7
09 19.08 В 5 6000 м мгла ясно +35.6 +28.4 67 +58 +69 опасность
перегрева
1003.7 1003.2
12 19.08 СВ 3 6000 м мгла ясно +35.2 +30.2 75 +62 +69 опасность
перегрева
1002.1 1001.6
15 19.08 С 3 3000 м мгла ясно +35.0 +28.3 68 +56 +56 опасность
перегрева
1001.8 1001.3 +37.6

 

Местоположение метеостанции Остров Сирри (Иран): широта 25.91 долгота 54.55 высота над уровнем моря 4 м.

В архиве по умолчанию представлена погода на Острове Сирри за последнюю неделю. Архивные данные за месяц целиком и за предыдущие месяцы, начиная с января 2011 года, Вы можете получить, выбрав интересующий диапазон дат из раскрывающегося списка и нажав кнопку "Ввод!".


*Определитесь, кто Вы:
робот инопланетянин человек

Внимание! Время в таблицах - всемирное. Для получения местного времени необходимо прибавить поправку, которая равна 3.5 ч.

Смотрите также архив погоды в соседних городах и на ближайших метеорологических станциях:

Погода на Острове Абу-Муса (Иран) (29 км)
Погода в Бендер-Ленге (Иран) (80 км)
Погода на Острове Киш (Иран) (87 км)
Погода в Дубае (ОАЭ) (107 км)
Погода в Шардже (ОАЭ) (117 км)
Погода в Аль-Мактум аэропорту (ОАЭ) (128 км)
Погода в Рай-эль-Хайма аэропорту (ОАЭ) (142 км)
Погода в Абу-Даби Батин аэропорту (ОАЭ) (165 км)
Погода в Абу-Даби (ОАЭ) (165 км)
Погода в Эль-Хасаб аэропорту (Оман) (170 км)

Пояснения к столбцам:

Ветер - указаны скорость ветра в м/с - средняя за 10 мин, порывы в срок и между сроками (в фигурных скобках) и направление, откуда дует ветер: С - северный, СВ - северо-восточный, В - восточный, ЮВ - юго-восточный, Ю - южный, ЮЗ - юго-западный, З - западный, СЗ - северо-западный.
Видимость - горизонтальная дальность видимости в метрах или километрах. При видимости от 1 до 10 км при отсутствии осадков обычно наблюдается дымка, при ухудшении видимости до 1 км и менее - туман. В сухую погоду видимость может ухудшаться дымом, пылью или мглою.
Явления - указаны атмосферные явления, наблюдавшиеся в срок или в последний час перед сроком; фигурными скобками обозначены явления, наблюдавшиеся между сроками (за 1-3 часа до срока); квадратными скобками обозначены град или гололедные отложения с указанием их диаметра в мм.
Облачность - указаны через наклонную черту общая и нижняя облачность в баллах и высота нижней границы облаков в метрах; квадратными скобками обозначены формы облаков: Ci - перистые, Cs - перисто-слоистые, Cc - перисто-кучевые, Ac - высококучевые, As - высокослоистые, Sc - слоисто-кучевые, Ns - слоисто-дождевые, Cu - кучевые, Cb - кучево-дождевые. Подробнее классификацию облаков см. в Атласе облаков (PDF).
T - Температура воздуха - температура, измеренная на высоте 2 м над землей.
Td - Температура точки росы - температура, при понижении до которой содержащийся в воздухе водяной пар достигнет насыщения.
f - Относительная влажность воздуха - влажноcть воздуха, измеренная на высоте 2 м над землей.
Te - Эффективная температура - температура, которую ощущает одетый по сезону человек в тени. Характеристика душности погоды. При расчете учитывается влияние влажности воздуха и скорости ветра на теплоощущения человека.
Tes - Эффективная температура на солнце - температура, которую ощущает человек, с поправкой на солнечный нагрев. Характеристика знойности погоды. Зависит от высоты солнца над горизонтом, облачности и скорости ветра. Ночью, в пасмурную погоду, а также при ветре 12 м/с и более поправка равна нулю.
P - Атмосферное давление - приведенное к уровню моря атмосферное давление.
Po - Атмосферное давление - измеренное на уровне метеостанции атмосферное давление.
Tmin - Минимальная температура - минимум температуры воздуха на высоте 2 м над землей.
Tmax - Максимальная температура - максимум температуры воздуха на высоте 2 м над землей.
R - Количество осадков - Количество выпавших осадков за период времени, мм. При наведении курсора мыши на число - период времени, за который выпало указанное количество осадков.
R24 - Количество осадков - Количество выпавших осадков за 24 часа, мм.
S - Снежный покров - Высота снежного покрова, см. При наведении курсора мыши на число - состояние снежного покрова и степень покрытия местности в баллах.